• In Hungary
  • List of Countries
  • For 7 days
  • Water Temperature
  • Satellite Maps
  • Weather Map
  • News
  • Weather Widgets
  • user-avatar
    Login

    Hourly Weather Pryyutne

    Today, 15 October, Monday

    Time Temperature Precipitation Wind Pressure Humidity
    00:00 +12°C° 0 mm 3 mps 755 mmHg 66%
    01:00 +12°C° 0 mm 3 mps 755 mmHg 69%
    02:00 +13°C° 0 mm 2 mps 755 mmHg 72%
    03:00 +12°C° 0 mm 2 mps 755 mmHg 74%
    04:00 +12°C° 0 mm 2 mps 755 mmHg 75%
    05:00 +12°C° 0 mm 2 mps 755 mmHg 77%
    06:00 +13°C° 0 mm 2 mps 755 mmHg 72%
    07:00 +13°C° 0 mm 3 mps 756 mmHg 67%
    08:00 +16°C° 0 mm 3 mps 756 mmHg 61%
    09:00 +18°C° 0 mm 3 mps 756 mmHg 54%
    10:00 +20°C° 0 mm 3 mps 756 mmHg 47%
    11:00 +22°C° 0 mm 3 mps 756 mmHg 39%
    12:00 +22°C° 0 mm 3 mps 756 mmHg 38%
    13:00 +23°C° 0 mm 4 mps 756 mmHg 36%
    14:00 +25°C° 0 mm 4 mps 755 mmHg 34%
    15:00 +22°C° 0 mm 3 mps 755 mmHg 38%
    16:00 +21°C° 0 mm 3 mps 755 mmHg 42%
    17:00 +19°C° 0 mm 3 mps 755 mmHg 47%
    18:00 +19°C° 0 mm 3 mps 755 mmHg 50%
    19:00 +18°C° 0 mm 3 mps 755 mmHg 52%
    20:00 +17°C° 0 mm 3 mps 755 mmHg 55%
    21:00 +17°C° 0 mm 3 mps 755 mmHg 57%
    22:00 +16°C° 0 mm 3 mps 755 mmHg 59%
    23:00 +16°C° 0 mm 3 mps 755 mmHg 61%

    Tomorrow, 16 October, Tuesday

    Time Temperature Precipitation Wind Pressure Humidity
    00:00 +16°C° 0 mm 3 mps 755 mmHg 63%
    01:00 +14°C° 0 mm 3 mps 755 mmHg 65%
    02:00 +14°C° 0 mm 3 mps 755 mmHg 67%
    03:00 +14°C° 0 mm 3 mps 755 mmHg 69%
    04:00 +13°C° 0 mm 3 mps 755 mmHg 71%
    05:00 +13°C° 0 mm 3 mps 755 mmHg 73%
    06:00 +14°C° 0 mm 3 mps 755 mmHg 70%
    07:00 +16°C° 0 mm 3 mps 756 mmHg 66%
    08:00 +17°C° 0 mm 4 mps 756 mmHg 62%
    09:00 +19°C° 0 mm 4 mps 756 mmHg 56%
    10:00 +21°C° 0 mm 4 mps 756 mmHg 49%
    11:00 +23°C° 0 mm 4 mps 756 mmHg 43%
    12:00 +23°C° 0 mm 4 mps 756 mmHg 40%
    13:00 +25°C° 0 mm 4 mps 755 mmHg 38%
    14:00 +25°C° 0 mm 4 mps 755 mmHg 35%
    15:00 +23°C° 0 mm 4 mps 755 mmHg 39%
    16:00 +21°C° 0 mm 3 mps 755 mmHg 43%
    17:00 +20°C° 0 mm 3 mps 754 mmHg 47%
    18:00 +19°C° 0 mm 3 mps 754 mmHg 50%
    19:00 +18°C° 0 mm 3 mps 755 mmHg 53%
    20:00 +17°C° 0 mm 3 mps 755 mmHg 55%
    21:00 +17°C° 0 mm 3 mps 755 mmHg 58%
    22:00 +16°C° 0 mm 3 mps 754 mmHg 60%
    23:00 +16°C° 0 mm 3 mps 754 mmHg 62%

    Day after tomorrow, 17 October, Wednesday

    Time Temperature Precipitation Wind Pressure Humidity
    00:00 +14°C° 0 mm 3 mps 754 mmHg 65%
    01:00 +14°C° 0 mm 3 mps 754 mmHg 67%
    02:00 +13°C° 0 mm 3 mps 754 mmHg 69%
    03:00 +13°C° 0 mm 3 mps 754 mmHg 71%
    04:00 +13°C° 0 mm 3 mps 754 mmHg 74%
    05:00 +12°C° 0 mm 3 mps 754 mmHg 76%
    06:00 +13°C° 0 mm 3 mps 754 mmHg 71%
    07:00 +15°C° 0 mm 4 mps 754 mmHg 67%
    08:00 +17°C° 0 mm 4 mps 754 mmHg 62%
    09:00 +18°C° 0 mm 4 mps 754 mmHg 55%
    10:00 +20°C° 0 mm 4 mps 754 mmHg 48%
    11:00 +22°C° 0 mm 5 mps 754 mmHg 41%
    12:00 +23°C° 0 mm 5 mps 754 mmHg 38%
    13:00 +23°C° 0 mm 4 mps 753 mmHg 36%
    14:00 +23°C° 0 mm 4 mps 753 mmHg 33%
    15:00 +22°C° 0 mm 4 mps 753 mmHg 36%
    16:00 +20°C° 0 mm 3 mps 753 mmHg 40%
    17:00 +19°C° 0 mm 3 mps 753 mmHg 43%
    18:00 +18°C° 0 mm 3 mps 753 mmHg 45%
    19:00 +17°C° 0 mm 3 mps 753 mmHg 47%
    20:00 +16°C° 0 mm 3 mps 753 mmHg 49%
    21:00 +16°C° 0 mm 3 mps 753 mmHg 51%
    22:00 +14°C° 0 mm 3 mps 753 mmHg 52%
    23:00 +14°C° 0 mm 3 mps 753 mmHg 54%

    18 October, Thursday

    Time Temperature Precipitation Wind Pressure Humidity
    00:00 +13°C° 0 mm 3 mps 753 mmHg 56%
    01:00 +13°C° 0 mm 3 mps 753 mmHg 57%
    02:00 +13°C° 0 mm 3 mps 752 mmHg 59%
    03:00 +12°C° 0 mm 3 mps 752 mmHg 60%
    04:00 +12°C° 0 mm 3 mps 752 mmHg 62%
    05:00 +12°C° 0 mm 3 mps 752 mmHg 63%
    06:00 +13°C° 0 mm 3 mps 752 mmHg 59%
    07:00 +14°C° 0 mm 4 mps 752 mmHg 55%
    08:00 +15°C° 0 mm 4 mps 753 mmHg 51%
    09:00 +18°C° 0 mm 4 mps 752 mmHg 45%
    10:00 +20°C° 0 mm 5 mps 752 mmHg 40%
    11:00 +22°C° 0 mm 5 mps 752 mmHg 34%
    12:00 +22°C° 0 mm 5 mps 752 mmHg 32%
    13:00 +23°C° 0 mm 5 mps 751 mmHg 30%
    14:00 +25°C° 0 mm 5 mps 751 mmHg 29%
    15:00 +22°C° 0 mm 4 mps 751 mmHg 32%
    16:00 +20°C° 0 mm 4 mps 751 mmHg 35%
    17:00 +19°C° 0 mm 3 mps 751 mmHg 38%
    18:00 +18°C° 0 mm 3 mps 751 mmHg 39%
    19:00 +17°C° 0 mm 4 mps 751 mmHg 40%
    20:00 +17°C° 0 mm 4 mps 751 mmHg 41%
    21:00 +15°C° 0 mm 4 mps 751 mmHg 42%
    22:00 +16°C° 0 mm 3 mps 751 mmHg 44%
    23:00 +14°C° 0 mm 3 mps 751 mmHg 45%

    19 October, Friday

    Time Temperature Precipitation Wind Pressure Humidity
    00:00 +14°C° 0 mm 3 mps 751 mmHg 47%
    01:00 +13°C° 0 mm 3 mps 751 mmHg 48%
    02:00 +13°C° 0 mm 3 mps 751 mmHg 50%
    03:00 +12°C° 0 mm 3 mps 750 mmHg 52%
    04:00 +12°C° 0 mm 4 mps 750 mmHg 53%
    05:00 +12°C° 0 mm 4 mps 750 mmHg 55%
    06:00 +13°C° 0 mm 4 mps 750 mmHg 53%
    07:00 +14°C° 0 mm 5 mps 750 mmHg 51%
    08:00 +15°C° 0 mm 5 mps 750 mmHg 50%
    09:00 +17°C° 0 mm 5 mps 750 mmHg 46%
    10:00 +19°C° 0 mm 6 mps 750 mmHg 42%
    11:00 +21°C° 0 mm 6 mps 750 mmHg 38%
    12:00 +21°C° 0 mm 6 mps 749 mmHg 37%
    13:00 +22°C° 0 mm 5 mps 749 mmHg 35%
    14:00 +22°C° 0 mm 5 mps 749 mmHg 34%
    15:00 +21°C° 0 mm 5 mps 749 mmHg 38%
    16:00 +19°C° 0 mm 4 mps 748 mmHg 41%
    17:00 +18°C° 0 mm 3 mps 748 mmHg 45%
    18:00 +17°C° 0 mm 3 mps 748 mmHg 47%
    19:00 +17°C° 0 mm 4 mps 748 mmHg 49%
    20:00 +15°C° 0 mm 4 mps 748 mmHg 51%
    21:00 +15°C° 0 mm 4 mps 748 mmHg 54%
    22:00 +14°C° 0 mm 4 mps 748 mmHg 57%
    23:00 +14°C° 0 mm 4 mps 747 mmHg 60%

    20 October, Saturday

    Time Temperature Precipitation Wind Pressure Humidity
    00:00 +14°C° 0 mm 3 mps 747 mmHg 63%
    01:00 +13°C° 0 mm 3 mps 747 mmHg 67%
    02:00 +13°C° 0 mm 3 mps 747 mmHg 70%
    03:00 +12°C° 0 mm 3 mps 747 mmHg 73%
    04:00 +12°C° 0 mm 3 mps 747 mmHg 75%
    05:00 +12°C° 0 mm 3 mps 747 mmHg 78%
    06:00 +13°C° 0 mm 3 mps 747 mmHg 77%
    07:00 +13°C° 0 mm 3 mps 747 mmHg 75%
    08:00 +14°C° 0 mm 3 mps 746 mmHg 74%
    09:00 +16°C° 0 mm 3 mps 746 mmHg 69%
    10:00 +18°C° 0 mm 3 mps 746 mmHg 63%
    11:00 +19°C° 0 mm 3 mps 746 mmHg 58%
    12:00 +20°C° 0 mm 3 mps 746 mmHg 54%
    13:00 +21°C° 0 mm 3 mps 746 mmHg 49%
    14:00 +22°C° 0 mm 3 mps 746 mmHg 45%
    15:00 +21°C° 0 mm 2 mps 745 mmHg 49%
    16:00 +19°C° 0 mm 2 mps 745 mmHg 53%
    17:00 +18°C° 0 mm 2 mps 745 mmHg 57%
    18:00 +17°C° 0 mm 2 mps 745 mmHg 60%
    19:00 +16°C° 0 mm 2 mps 745 mmHg 63%
    20:00 +16°C° 0 mm 2 mps 745 mmHg 66%
    21:00 +15°C° 0 mm 2 mps 745 mmHg 67%
    22:00 +15°C° 0 mm 2 mps 745 mmHg 68%
    23:00 +15°C° 0 mm 2 mps 745 mmHg 68%
    Show more